User: anonymous   Login
Location: Unspecified
(0.0000°N, 0.0000°E)
Time: 06:41:39
(UTC+00:00)
Language:

OPTUS D3 - Orbit

View from above orbital plane
View from above orbital plane
View from above satellite
View from above satellite

Ground track
Ground track

The orbit data is extracted from the following two-line orbital elements,

1 35756U 09044B   16124.63876868 -.00000160  00000-0  00000+0 0  9996
2 35756   0.0532  33.9483 0004075   3.1403 210.8479  1.00271105 24560
Epoch (UTC): 03 May 2016 15:19:49
Eccentricity: 0.0004075
inclination: 0.0532°
perigee height: 35769 km
apogee height: 35803 km
right ascension of ascending node: 33.9483°
argument of perigee: 3.1403°
revolutions per day: 1.00271105
mean anomaly at epoch: 210.8479°
orbit number at epoch: 2456

The dashed part of the orbit path shows where the satellite is in the earth's shadow,  

DLR